TimeAKST,TemperatureF,Dew PointF,Humidity,Sea Level PressureIn,VisibilityMPH,Wind Direction,Wind SpeedMPH,Gust SpeedMPH,PrecipitationIn,Events,Conditions,WindDirDegrees,DateUTC
12:16 AM,44.6,39.2,81,30.17,8.0,SE,20.7,25.3,N/A,,Overcast,130,2011-12-05 09:16:00
12:36 AM,44.6,39.2,81,30.17,10.0,SE,15.0,-,N/A,,Overcast,130,2011-12-05 09:36:00
12:56 AM,44.6,39.2,81,30.14,10.0,ESE,16.1,19.6,N/A,,Overcast,120,2011-12-05 09:56:00
1:16 AM,46.4,39.2,76,30.13,10.0,SE,15.0,24.2,N/A,,Overcast,130,2011-12-05 10:16:00
1:36 AM,46.4,39.2,76,30.11,10.0,SSE,16.1,24.2,N/A,,Overcast,150,2011-12-05 10:36:00
2:16 AM,46.4,39.2,76,30.06,10.0,SE,21.9,29.9,N/A,,Overcast,130,2011-12-05 11:16:00
2:36 AM,46.4,39.2,76,30.04,10.0,SE,26.5,31.1,N/A,,Overcast,140,2011-12-05 11:36:00
2:56 AM,46.4,39.2,76,30.02,10.0,SE,24.2,31.1,N/A,,Overcast,140,2011-12-05 11:56:00
3:16 AM,46.4,39.2,76,30.01,10.0,SE,25.3,31.1,N/A,,Overcast,140,2011-12-05 12:16:00
3:36 AM,46.4,39.2,76,30.00,10.0,SE,20.7,28.8,N/A,,Overcast,140,2011-12-05 12:36:00
3:56 AM,46.4,39.2,76,29.99,10.0,SE,21.9,28.8,N/A,,Overcast,140,2011-12-05 12:56:00
4:16 AM,46.4,39.2,76,29.97,10.0,SE,25.3,28.8,N/A,,Overcast,130,2011-12-05 13:16:00
4:36 AM,46.4,39.2,76,29.95,10.0,SE,25.3,32.2,N/A,,Overcast,130,2011-12-05 13:36:00
4:56 AM,44.6,39.2,81,29.94,10.0,SE,20.7,29.9,N/A,,Overcast,140,2011-12-05 13:56:00
5:16 AM,46.4,39.2,76,29.92,10.0,SE,24.2,27.6,N/A,,Overcast,140,2011-12-05 14:16:00
5:36 AM,44.6,39.2,81,29.90,10.0,SE,23.0,27.6,N/A,,Overcast,140,2011-12-05 14:36:00
5:56 AM,44.6,41.0,87,29.88,10.0,SE,20.7,25.3,N/A,,Overcast,140,2011-12-05 14:56:00
6:16 AM,44.6,39.2,81,29.86,8.0,SE,18.4,26.5,N/A,,Overcast,140,2011-12-05 15:16:00
6:36 AM,44.6,39.2,81,29.85,7.0,SE,20.7,27.6,N/A,,Overcast,140,2011-12-05 15:36:00
7:16 AM,44.6,41.0,87,29.84,5.0,SE,10.4,20.7,N/A,,Overcast,140,2011-12-05 16:16:00
7:36 AM,44.6,41.0,87,29.84,6.0,SSE,9.2,-,N/A,,Overcast,160,2011-12-05 16:36:00
7:56 AM,44.6,41.0,87,29.80,5.0,SE,15.0,-,N/A,,Overcast,130,2011-12-05 16:56:00
8:16 AM,44.6,41.0,87,29.81,5.0,SSE,10.4,-,N/A,,Overcast,150,2011-12-05 17:16:00
8:36 AM,44.6,41.0,87,29.80,7.0,SE,12.7,-,N/A,,Overcast,130,2011-12-05 17:36:00
8:56 AM,44.6,41.0,87,29.80,10.0,SE,9.2,-,N/A,,Overcast,130,2011-12-05 17:56:00
9:16 AM,44.6,42.8,93,29.80,8.0,SSE,8.1,-,N/A,,Overcast,150,2011-12-05 18:16:00
9:36 AM,44.6,41.0,87,29.82,9.0,SW,17.3,26.5,N/A,,Overcast,230,2011-12-05 18:36:00
9:56 AM,39.2,35.6,87,29.83,8.0,SW,13.8,26.5,N/A,,Overcast,220,2011-12-05 18:56:00
10:16 AM,39.2,33.8,81,29.84,10.0,SW,16.1,23.0,N/A,,Overcast,220,2011-12-05 19:16:00
10:36 AM,39.2,33.8,81,29.83,10.0,South,13.8,24.2,N/A,,Overcast,190,2011-12-05 19:36:00
10:56 AM,39.2,33.8,81,29.82,10.0,South,11.5,25.3,N/A,,Overcast,190,2011-12-05 19:56:00
11:16 AM,39.2,35.6,87,29.81,10.0,SW,21.9,31.1,N/A,,Overcast,230,2011-12-05 20:16:00
11:36 AM,41.0,35.6,81,29.82,10.0,WSW,20.7,28.8,N/A,,Mostly Cloudy,240,2011-12-05 20:36:00
11:56 AM,41.0,33.8,76,29.83,10.0,WSW,17.3,27.6,N/A,,Overcast,240,2011-12-05 20:56:00
12:16 PM,41.0,33.8,76,29.85,10.0,WSW,10.4,-,N/A,,Overcast,250,2011-12-05 21:16:00
12:36 PM,42.8,33.8,70,29.86,10.0,West,6.9,-,N/A,,Overcast,260,2011-12-05 21:36:00
12:56 PM,42.8,33.8,70,29.87,10.0,WSW,5.8,-,N/A,,Overcast,250,2011-12-05 21:56:00
1:16 PM,42.8,32.0,66,29.88,10.0,WSW,8.1,-,N/A,,Overcast,250,2011-12-05 22:16:00
1:36 PM,42.8,30.2,61,29.89,10.0,WSW,10.4,-,N/A,,Overcast,250,2011-12-05 22:36:00
1:56 PM,42.8,30.2,61,29.90,10.0,West,20.7,27.6,N/A,,Partly Cloudy,260,2011-12-05 22:56:00
2:16 PM,42.8,30.2,61,29.91,10.0,WSW,18.4,28.8,N/A,,Clear,240,2011-12-05 23:16:00
2:36 PM,41.0,30.2,65,29.93,10.0,WSW,17.3,24.2,N/A,,Clear,240,2011-12-05 23:36:00
2:56 PM,41.0,28.4,61,29.92,10.0,WSW,20.7,27.6,N/A,,Clear,250,2011-12-05 23:56:00
3:16 PM,41.0,28.4,61,29.93,10.0,WSW,20.7,32.2,N/A,,Clear,240,2011-12-06 00:16:00
3:36 PM,39.2,26.6,61,29.95,10.0,WSW,17.3,27.6,N/A,,Clear,250,2011-12-06 00:36:00
3:56 PM,39.2,26.6,61,29.97,10.0,WNW,11.5,20.7,N/A,,Clear,290,2011-12-06 00:56:00
4:16 PM,39.2,24.8,56,29.99,10.0,Calm,Calm,-,N/A,,Clear,0,2011-12-06 01:16:00
4:36 PM,39.2,24.8,56,29.99,10.0,East,6.9,-,N/A,,Clear,100,2011-12-06 01:36:00
4:56 PM,37.4,24.8,60,30.00,10.0,SW,3.5,-,N/A,,Clear,220,2011-12-06 01:56:00
5:16 PM,39.2,24.8,56,30.01,10.0,WSW,12.7,21.9,N/A,,Clear,240,2011-12-06 02:16:00
5:36 PM,37.4,26.6,65,30.02,10.0,WSW,16.1,25.3,N/A,,Clear,250,2011-12-06 02:36:00
5:56 PM,37.4,26.6,65,30.03,10.0,West,5.8,23.0,N/A,,Clear,260,2011-12-06 02:56:00
6:16 PM,37.4,24.8,60,30.05,10.0,NW,3.5,-,N/A,,Clear,320,2011-12-06 03:16:00
6:36 PM,37.4,21.2,52,30.05,10.0,West,4.6,-,N/A,,Clear,260,2011-12-06 03:36:00
6:56 PM,37.4,19.4,48,30.06,10.0,West,5.8,18.4,N/A,,Clear,260,2011-12-06 03:56:00
7:16 PM,37.4,19.4,48,30.07,10.0,NW,4.6,-,N/A,,Clear,320,2011-12-06 04:16:00
7:36 PM,37.4,17.6,45,30.09,10.0,NW,9.2,-,N/A,,Clear,320,2011-12-06 04:36:00
7:56 PM,37.4,19.4,48,30.11,10.0,West,5.8,-,N/A,,Clear,280,2011-12-06 04:56:00
8:16 PM,37.4,19.4,48,30.12,10.0,West,9.2,19.6,N/A,,Clear,280,2011-12-06 05:16:00
8:36 PM,35.6,21.2,56,30.14,10.0,West,6.9,-,N/A,,Clear,270,2011-12-06 05:36:00
8:56 PM,35.6,21.2,56,30.15,10.0,West,4.6,-,N/A,,Clear,270,2011-12-06 05:56:00
9:16 PM,35.6,21.2,56,30.16,10.0,Calm,Calm,-,N/A,,Clear,0,2011-12-06 06:16:00
9:36 PM,33.8,21.2,60,30.17,10.0,ESE,4.6,-,N/A,,Partly Cloudy,120,2011-12-06 06:36:00
9:56 PM,35.6,21.2,56,30.18,10.0,SW,3.5,-,N/A,,Partly Cloudy,230,2011-12-06 06:56:00
10:16 PM,33.8,21.2,60,30.20,10.0,Calm,Calm,-,N/A,,Clear,0,2011-12-06 07:16:00
10:36 PM,30.2,23.0,75,30.22,10.0,Calm,Calm,-,N/A,,Clear,0,2011-12-06 07:36:00
10:56 PM,30.2,24.8,80,30.23,10.0,SW,10.4,-,N/A,,Scattered Clouds,220,2011-12-06 07:56:00
11:36 PM,33.8,24.8,70,30.25,10.0,WSW,5.8,-,N/A,,Clear,240,2011-12-06 08:36:00
11:56 PM,33.8,23.0,65,30.26,10.0,ENE,5.8,-,N/A,,Clear,60,2011-12-06 08:56:00